Location: ?????????
(38.0736°N, 23.2119°E)
Time: 20:49:05
(UTC+00:00)

Cosmos 1980 Rocket - Visible Passes

Search period start: 12 July 2024 00:00
Search period end: 22 July 2024 00:00
Orbit: 828 x 850 km, 71.0° (Epoch: 11 July)

Date Brightness Start Highest point End Pass type
(mag) Time Alt. Az. Time Alt. Az. Time Alt. Az.
13 Jul 2.8 02:29:20 10° S 02:34:54 58° ESE 02:40:29 10° NNE visible
14 Jul 2.9 02:13:30 10° S 02:19:00 54° ESE 02:24:33 10° NNE visible
15 Jul 3.0 01:57:39 10° S 02:03:08 50° ESE 02:08:36 10° NNE visible
16 Jul 3.1 01:42:03 11° S 01:47:14 47° ESE 01:52:40 10° NE visible
17 Jul 3.1 01:27:00 15° S 01:31:21 43° ESE 01:36:43 10° NE visible
18 Jul 3.2 01:11:53 19° SSE 01:15:28 40° ESE 01:20:45 10° NE visible
19 Jul 3.3 00:56:43 23° SSE 00:59:36 37° ESE 01:04:47 10° NE visible
19 Jul 3.3 02:38:41 10° WSW 02:43:36 29° WNW 02:48:32 10° N visible
20 Jul 3.4 00:41:31 26° SE 00:43:43 35° ESE 00:48:48 10° NE visible
20 Jul 3.2 02:23:17 13° WSW 02:27:39 31° WNW 02:32:41 10° N visible
21 Jul 3.4 00:26:16 28° SE 00:27:50 32° ESE 00:32:49 10° NE visible
21 Jul 3.1 02:08:02 17° WSW 02:11:43 33° WNW 02:16:51 10° N visible
